Home   Weather   Lesbos   Past weeks
Flag for Greece

Past Weather in Lesbos, Greece — Yesterday and Last 2 Weeks

Now
43 °F

Sunny.


Feels Like: 39 °F
Forecast: 57 / 41 °F
Wind: 7 mph from Northwest

Location: Mytilini Airport

Current Time: Dec 6, 2019 at 8:37:36 am

Latest Report: Dec 6, 2019 at 7:50 am


Visibility: 10 mi

Pressure: 30.30 "Hg

Humidity: 71%

Dew Point: 34 °F

Location of LesbosLocation

Past Weather in Lesbos — Graph

°F

Lesbos Temperature Yesterday

Maximum temperature yesterday: 55 °F (at 1:50 pm)
Minimum temperature yesterday: 50 °F (at 7:20 am)
Average temperature yesterday: 53 °F

High & Low Weather Summary for the Past Weeks

 TemperatureHumidityPressure
High72 °F (Nov 21, 2:50 pm)94% (Nov 21, 10:50 pm)30.33 "Hg (Nov 21, 10:50 pm)
Low43 °F (Dec 6, 6:20 am)44% (Dec 2, 2:50 pm)29.68 "Hg (Nov 26, 6:20 am)
Average59 °F79%30.02 "Hg
* Reported Nov 21 7:20 am — Dec 6 7:20 am, Lesbos. Weather by CustomWeather, © 2019

Note: Actual official high and low records may vary slightly from our data, if they occured in-between our weather recording intervals... More about our weather records

Lesbos Weather History for the Previous 24 Hours

Scroll right to see more
 ConditionsComfort  
Time TempWeatherWind HumidityBarometerVisibility
7:20 am
Fri, Dec 6
43 °FSunny.6 mph76%30.30 "Hg10 mi
6:50 am43 °FPassing clouds.6 mph76%30.30 "HgN/A
6:20 am43 °FPassing clouds.6 mph76%30.30 "HgN/A
10:20 pm
Thu, Dec 5
52 °FPassing clouds.10 mph62%30.33 "HgN/A
9:50 pm52 °FPassing clouds.10 mph62%30.33 "HgN/A
9:20 pm52 °FPassing clouds.10 mph58%30.33 "HgN/A
8:50 pm52 °FPassing clouds.10 mph58%30.33 "HgN/A
8:20 pm52 °FPassing clouds.12 mph58%30.33 "HgN/A
7:50 pm52 °FPassing clouds.12 mph58%30.33 "HgN/A
7:20 pm52 °FPassing clouds.12 mph58%30.33 "HgN/A
6:50 pm52 °FPassing clouds.12 mph58%30.33 "HgN/A
6:20 pm52 °FPassing clouds.12 mph58%30.30 "HgN/A
5:50 pm52 °FPassing clouds.12 mph58%30.30 "HgN/A
5:20 pm52 °FPassing clouds.12 mph54%30.30 "HgN/A
4:50 pm54 °FPassing clouds.12 mph51%30.30 "HgN/A
4:20 pm54 °FPassing clouds.12 mph47%30.30 "HgN/A
3:50 pm55 °FPassing clouds.12 mph44%30.30 "HgN/A
3:20 pm55 °FPassing clouds.10 mph44%30.30 "HgN/A
2:50 pm55 °FPassing clouds.10 mph44%30.30 "HgN/A
2:20 pm55 °FPassing clouds.9 mph59%30.30 "HgN/A
1:50 pm55 °FPassing clouds.9 mph59%30.30 "HgN/A
1:20 pm54 °FPassing clouds.9 mph63%30.30 "HgN/A
12:50 pm54 °FPassing clouds.9 mph63%30.30 "HgN/A
12:20 pm54 °FPassing clouds.12 mph63%30.30 "HgN/A
11:50 am54 °FPassing clouds.8 mph63%30.33 "HgN/A
11:20 am52 °FPassing clouds.9 mph67%30.33 "HgN/A
10:50 am52 °FPassing clouds.9 mph67%30.33 "HgN/A
10:20 am52 °FPassing clouds.9 mph62%30.33 "HgN/A
9:50 am52 °FPassing clouds.12 mph62%30.33 "HgN/A
9:20 am52 °FPassing clouds.15 mph62%30.33 "HgN/A
8:50 am52 °FPassing clouds.15 mph62%30.33 "HgN/A
8:20 am52 °FPassing clouds.7 mph67%30.33 "HgN/A
Weather by CustomWeather, © 2019

See weather overview

Advertising